PROFILE

 METAR AND TAF INFORMATION
ADDS - METARS form results

(0607 UTC 19 July 2019)
http://aviationweather.gov/metar/data/
 
EIDW 190600Z 13005KT 100V190 7000 -RA SCT003 SCT005 BKN030 14/13 Q1006 TEMPO 2000 RA BKN003
EIDW 190530Z 13006KT 100V160 9999 FEW003 BKN033 14/13 Q1006 NOSIG
TAF EIDW 190500Z 1906/2006 11009KT 9999 SCT010 BKN020 BECMG 1906/1907 4000 -RA BKN008 TEMPO 1907/1911 2000 RA BKN003 PROB30 TEMPO 1907/1910 1200 TSRA BKN016CB BECMG 1909/1912 05008KT TEMPO 1911/1914 2000 -RADZ BR BKN002 BECMG 1913/1915 11008KT 9999 NSW BKN020 TEMPO 1914/1921 4000 SHRA BKN016CB PROB30 TEMPO 1914/1919 2500 TSRA BKN008 BECMG 1916/1918 21013KT BECMG 1920/1922 18008KT BECMG 1923/2002 25012KT BKN012 TEMPO 2002/2006 3000 -RADZ BKN004 BECMG 2004/2006 29016G26KT 

 AIRPORT MAP

 RUNWAY INFORMATION
Runway 10 Runway length 8652 ft Runway width 148 ft
Runway elevation 242 ft Runway displaced threshold 0 ft Runway heading 95
Runway 28 Runway length 8652 ft Runway width 148 ft
Runway elevation 202 ft Runway displaced threshold 0 ft Runway heading 275
Runway 11 Runway length 4393 ft Runway width 200 ft
Runway elevation 217 ft Runway displaced threshold 279 ft Runway heading 105
Runway 29 Runway length 4393 ft Runway width 200 ft
Runway elevation 216 ft Runway displaced threshold 0 ft Runway heading 285
Runway 16 Runway length 6798 ft Runway width 200 ft
Runway elevation 217 ft Runway displaced threshold 0 ft Runway heading 157
Runway 34 Runway length 6798 ft Runway width 200 ft
Runway elevation 202 ft Runway displaced threshold 0 ft Runway heading 337

 AIRPORT FREQUENCIES
Type APP Name APP Frequency 121.1 MHZ
Type ATIS Name ATIS Frequency 124.525 MHZ
Type CLD Name CLNC DEL Frequency 121.875 MHZ
Type GND Name GND Frequency 121.8 MHZ
Type INFO Name FIS Frequency 118.5 MHZ
Type TWR Name TWR Frequency 118.6 MHZ

 AIRPORT NEAR NAVIGATION AIDS
Type VOR-DME Name Dublin Frequency 111200 KHZ
Type VOR-DME Name Dublin Frequency 114900 KHZ
Type NDB Name Garristown Frequency 407 KHZ
Type NDB-DME Name Gormanston Frequency 334 KHZ
Type DME Name Dublin Frequency 108900 KHZ
Type NDB Name Killiney Frequency 378 KHZ
Type NDB Name Rush Frequency 326 KHZ